Gold Coast Seaway Observation History
Time Wind Speed Temp Pressure Rel. Hum Rain
19/06:00pm SSE 19-22 kts 18.0°c 1019.2 hPa 80% 0.0mm
19/05:30pm SSE 19-22 kts 18.3°c 1018.8 hPa 80% 0.0mm
19/05:00pm SSE 20-24 kts 18.5°c 1018.4 hPa 81% 0.0mm
19/04:30pm SSE 20-26 kts 19.0°c 1018.1 hPa 80% 0.0mm
19/04:00pm SSE 20-24 kts 19.8°c 1017.7 hPa 79% 0.0mm
19/03:30pm SE 17-21 kts 20.5°c 1017.4 hPa 76% 0.0mm
19/03:00pm SE 16-19 kts 21.2°c 1017.2 hPa 73% 0.0mm
19/02:30pm SE 16-18 kts 21.6°c 1016.9 hPa 73% 0.0mm
19/02:00pm SE 15-17 kts 22.1°c 1017.1 hPa 73% 0.0mm
19/01:30pm SE 12-14 kts 22.5°c 1016.9 hPa 73% 0.0mm
19/01:00pm SE 10-12 kts 22.4°c 1016.9 hPa 70% 0.0mm
19/12:30pm SSE 12-14 kts 22.4°c 1017.1 hPa 69% 0.0mm
19/12:00pm SSE 12-15 kts 22.0°c 1017.6 hPa 69% 0.0mm
19/11:30am ESE 6-8 kts 21.0°c 1018.1 hPa 69% 0.0mm
19/11:00am E 5-6 kts 20.6°c 1018.4 hPa 71% 0.0mm
19/10:30am E 3-5 kts 20.2°c 1018.8 hPa 74% 0.0mm
19/10:00am SE 5-6 kts 19.8°c 1018.8 hPa 74% 0.0mm
19/09:30am SE 5-6 kts 19.3°c 1018.5 hPa 82% 0.0mm
19/09:00am W 4-5 kts 17.1°c 1018.6 hPa 80% 0.0mm
19/08:30am W 3-4 kts 16.0°c 1018.2 hPa 85% 0.0mm
19/08:00am WNW 5-6 kts 14.6°c 1017.9 hPa 90% 0.0mm
19/07:30am NW 7-8 kts 14.1°c 1017.8 hPa 95% 0.0mm
19/07:00am WNW 7-8 kts 13.5°c 1017.5 hPa 97% 0.0mm
19/06:30am WNW 7-8 kts 13.7°c 1017.2 hPa 97% 0.0mm
19/06:00am WSW 5-6 kts 12.9°c 1016.7 hPa 95% 0.0mm
19/05:30am WNW 5-6 kts 13.4°c 1016.3 hPa 94% 0.0mm
19/05:00am W 5-6 kts 13.5°c 1016.0 hPa 95% 0.0mm
19/04:30am WNW 5-6 kts 13.7°c 1016.0 hPa 97% 0.0mm
19/04:00am WNW 5-6 kts 13.4°c 1016.0 hPa 95% 0.0mm
19/03:30am W 5-6 kts 14.0°c 1016.0 hPa 93% 0.0mm
19/03:00am WSW 5-7 kts 14.2°c 1016.2 hPa 94% 0.0mm
19/02:30am WSW 6-7 kts 14.3°c 1016.3 hPa 95% 0.0mm
19/02:00am WSW 5-6 kts 14.3°c 1016.5 hPa 95% 0.0mm
19/01:30am WSW 4-5 kts 13.9°c 1016.8 hPa 94% 0.0mm
19/01:00am WSW 6 kts 14.1°c 1016.7 hPa 93% 0.0mm
19/12:30am WSW 5-6 kts 14.4°c 1016.8 hPa 92% 0.0mm
19/12:00am WSW 5-6 kts 14.5°c 1016.9 hPa 92% 0.0mm
Time Wind Speed Temp Pressure Rel. Hum Rain
18/11:30pm WSW 5-6 kts 14.2°c 1017.0 hPa 88% 0.0mm
18/11:00pm WSW 5-6 kts 15.4°c 1017.1 hPa 90% 0.0mm
18/10:30pm W 5-6 kts 15.8°c 1017.2 hPa 91% 0.0mm
18/10:00pm W 6-7 kts 16.0°c 1017.3 hPa 90% 0.0mm
18/09:30pm W 7 kts 16.3°c 1017.3 hPa 89% 0.0mm
18/09:00pm W 5-7 kts 16.4°c 1017.2 hPa 87% 0.0mm
18/08:30pm WSW 6-7 kts 16.8°c 1017.3 hPa 87% 0.0mm
18/08:00pm SW 4-5 kts 16.9°c 1017.2 hPa 84% 0.0mm
18/07:30pm S 7-8 kts 17.5°c 1017.0 hPa 81% 0.0mm
18/07:00pm SSE 9-12 kts 18.8°c 1016.8 hPa 81% 0.0mm
18/06:30pm SSE 10-12 kts 19.0°c 1016.4 hPa 79% 0.0mm
18/06:00pm SSE 9-11 kts 19.1°c 1016.2 hPa 78% 0.0mm
18/05:30pm SSE 9-11 kts 19.2°c 1015.9 hPa 75% 0.0mm
18/05:00pm SSE 9-11 kts 19.6°c 1015.5 hPa 75% 0.0mm
18/04:30pm SE 10-14 kts 20.5°c 1015.2 hPa 74% 0.0mm
18/04:00pm SE 9-12 kts 21.2°c 1015.0 hPa 70% 0.0mm
18/03:30pm ESE 6-8 kts 21.8°c 1014.9 hPa 70% 0.0mm
18/03:00pm E 6-7 kts 21.7°c 1014.8 hPa 67% 0.0mm
18/02:30pm E 6-8 kts 21.8°c 1015.0 hPa 68% 0.0mm
18/02:00pm ESE 6-8 kts 21.8°c 1015.2 hPa 65% 0.0mm
18/01:30pm ESE 7-8 kts 21.9°c 1015.4 hPa 64% 0.0mm
18/01:00pm NE 3-4 kts 22.3°c 1015.7 hPa 61% 0.0mm
18/12:30pm E 5-6 kts 21.8°c 1016.1 hPa 62% 0.0mm
18/12:00pm E 5-6 kts 21.6°c 1016.6 hPa 60% 0.0mm
18/11:30am WNW 4-8 kts 21.3°c 1017.0 hPa 58% 0.0mm
18/11:00am SW 4-6 kts 21.4°c 1017.3 hPa 56% 0.0mm
18/10:30am W 5-7 kts 20.6°c 1017.7 hPa 54% 0.0mm
18/10:00am W 5-7 kts 20.3°c 1017.9 hPa 57% 0.0mm
18/09:30am SW 4-5 kts 18.7°c 1018.1 hPa 59% 0.0mm
18/09:00am WSW 4-6 kts 17.4°c 1018.1 hPa 62% 0.0mm
18/08:30am WSW 6-7 kts 15.5°c 1018.2 hPa 68% 0.0mm
18/08:00am W 7-8 kts 14.1°c 1018.1 hPa 71% 0.0mm
18/07:30am W 7-8 kts 13.1°c 1017.5 hPa 72% 0.0mm
18/07:00am W 6-7 kts 12.2°c 1017.6 hPa 74% 0.0mm
18/06:30am W 7-8 kts 11.7°c 1017.3 hPa 80% 0.0mm
18/06:00am W 7-8 kts 11.4°c 1017.1 hPa 81% 0.0mm
18/05:30am WNW 8-9 kts 11.8°c 1016.6 hPa 81% 0.0mm
18/05:00am WSW 7-9 kts 11.4°c 1016.3 hPa 84% 0.0mm
18/04:30am W 7-8 kts 11.1°c 1016.2 hPa 87% 0.0mm
18/04:00am WNW 7-8 kts 11.6°c 1016.2 hPa 90% 0.0mm
18/03:30am NW 7-8 kts 11.9°c 1016.2 hPa 85% 0.0mm
18/03:00am NW 6-8 kts 12.3°c 1016.3 hPa 87% 0.0mm
18/02:30am WNW 5-7 kts 11.8°c 1016.3 hPa 77% 0.0mm
18/02:00am WSW 6-7 kts 12.8°c 1016.3 hPa 73% 0.0mm
18/01:30am W 6-8 kts 12.8°c 1016.5 hPa 73% 0.0mm
18/01:00am W 7-9 kts 12.9°c 1016.6 hPa 75% 0.0mm
18/12:30am WSW 7-8 kts 12.7°c 1016.6 hPa 80% 0.0mm
18/12:00am W 5-7 kts 12.7°c 1016.8 hPa 80% 0.0mm
Time Wind Speed Temp Pressure Rel. Hum Rain
17/11:30pm SW 5-6 kts 12.5°c 1017.0 hPa 83% 0.0mm
17/11:00pm WNW 5-6 kts 13.4°c 1017.1 hPa 82% 0.0mm
17/10:30pm WSW 6-7 kts 13.4°c 1017.2 hPa 80% 0.0mm
17/10:00pm SW 5-7 kts 13.5°c 1017.3 hPa 81% 0.0mm
17/09:30pm SW 7-9 kts 13.8°c 1017.4 hPa 81% 0.0mm
17/09:00pm SW 6-7 kts 14.1°c 1017.3 hPa 82% 0.0mm
17/08:30pm W 5-6 kts 14.9°c 1017.1 hPa 78% 0.0mm
17/08:00pm WSW 6-7 kts 15.2°c 1017.1 hPa 75% 0.0mm
17/07:30pm SSW 5-6 kts 15.2°c 1016.9 hPa 75% 0.0mm
17/07:00pm SE 6-7 kts 15.8°c 1016.6 hPa 69% 0.0mm
17/06:30pm SSE 7-9 kts 17.4°c 1016.3 hPa 63% 0.0mm
17/06:00pm SE 7-8 kts 17.7°c 1015.8 hPa 60% 0.0mm
17/05:30pm ESE 9-11 kts 18.7°c 1015.5 hPa 66% 0.0mm
17/05:00pm SE 10-12 kts 18.8°c 1015.3 hPa 65% 0.0mm
17/04:30pm ESE 12-14 kts 19.4°c 1015.2 hPa 66% 0.0mm
17/04:00pm SE 11-14 kts 19.6°c 1015.0 hPa 59% 0.0mm
17/03:30pm SE 10-13 kts 20.3°c 1014.7 hPa 54% 0.0mm
17/03:00pm ESE 9-12 kts 20.9°c 1014.4 hPa 51% 0.0mm
17/02:30pm SE 8-9 kts 21.3°c 1014.4 hPa 47% 0.0mm
17/02:00pm SE 9-10 kts 21.4°c 1014.4 hPa 50% 0.0mm
17/01:30pm SE 10-13 kts 21.8°c 1014.6 hPa 55% 0.0mm
17/01:00pm WNW 7-10 kts 21.7°c 1014.7 hPa 38% 0.0mm
17/12:30pm W 10-14 kts 21.6°c 1014.9 hPa 38% 0.0mm
17/12:00pm W 13-16 kts 21.2°c 1015.0 hPa 43% 0.0mm
17/11:30am WNW 9-12 kts 20.9°c 1015.5 hPa 49% 0.0mm
17/11:00am WNW 11-17 kts 20.7°c 1015.8 hPa 50% 0.0mm
17/10:30am W 11-14 kts 20.2°c 1016.1 hPa 51% 0.0mm
17/10:00am W 12-14 kts 19.5°c 1016.3 hPa 58% 0.0mm
17/09:30am WNW 9-12 kts 18.3°c 1016.8 hPa 66% 0.0mm
17/09:00am WNW 9-11 kts 18.0°c 1016.8 hPa 72% 3.8mm
17/08:30am W 9-10 kts 16.8°c 1016.8 hPa 80% 3.8mm
17/08:00am WNW 8-9 kts 16.3°c 1016.8 hPa 84% 3.8mm
17/07:30am WNW 8-9 kts 16.0°c 1016.4 hPa 86% 3.8mm
17/07:00am W 8-10 kts 15.8°c 1016.0 hPa 92% 3.8mm
17/06:30am W 9-12 kts 16.2°c 1015.8 hPa 93% 3.8mm
17/06:00am WNW 10-13 kts 16.3°c 1015.3 hPa 98% 3.8mm
17/05:30am WNW 8-9 kts 16.3°c 1015.2 hPa 99% 3.8mm
17/05:00am WNW 7-9 kts 16.6°c 1015.0 hPa 99% 3.8mm
17/04:30am WNW 8-10 kts 16.6°c 1015.1 hPa 99% 3.8mm
17/04:00am NW 7-8 kts 16.6°c 1014.8 hPa 99% 3.8mm
17/03:30am WNW 9-12 kts 16.7°c 1014.8 hPa 99% 3.6mm
17/03:00am WNW 9-11 kts 16.8°c 1015.0 hPa 99% 3.6mm
17/02:30am NW 8-10 kts 17.0°c 1015.1 hPa 99% 3.4mm
17/02:00am NNW 8-10 kts 17.1°c 1015.4 hPa 99% 3.2mm
17/01:30am NNW 5 kts 16.8°c 1015.5 hPa 98% 3.2mm
17/01:00am NNW 6 kts 16.8°c 1016.0 hPa 98% 3.2mm
17/12:30am WNW 5-6 kts 16.9°c 1016.0 hPa 97% 3.2mm
17/12:00am NNW 6 kts 17.2°c 1016.1 hPa 97% 3.2mm